Погода в Салаушах

Россия / Республика Татарстан     55°59′33″N   52°53′17″E
темп.,
°C
ветер,
м/с
пор.,
м/с
влажн.,
%
обл.,
%
осадки,
мм/ч
давл.,
гПа
погр.,
м
15 мая, сб
сб1500:00+20ююз412511 0.0 1020284
03:00+17ююз25636 0.0 102098
06:00+20ююз275337 0.0 1020219
09:00+26юз4635100 0.0 1020677
12:00+29юз683098 0.0 10201051
15:00+29юз5831100 0.0 10191112
18:00+26ююз3944100 0.0 1019267
21:00+20ю385597 0.0 1019126
16 мая, вс
вс1600:00+18ю235610 0.0 101929
03:00+17ю22575 0.0 101924
06:00+21ю37502 0.0 1020205
09:00+27ююз58345 0.0 1019876
12:00+30юз68263 0.0 10182539
15:00+30юз68275 0.0 10173171
18:00+26юз384170 0.0 1017261
21:00+21ююз2255100 0.0 101712
17 мая, пн
пн1700:00+19ююз265855 0.0 101797
03:00+17юз2358100 0.0 101833
06:00+20зюз265496 0.0 1019181
09:00+26юз45395 0.0 1019744
12:00+29зюз593116 0.0 10181765
15:00+30зюз510295 0.0 10182831
18:00+26зсз36475 0.0 1018190
21:00+21з22614 0.0 101811
18 мая, вт
вт1800:00+19з22674 0.0 101911
03:00+17з117214 0.0 101911
06:00+21всв1161100 0.0 1019140
09:00+26юз22455 0.0 1019799
12:00+30з233253 0.0 10181856
15:00+30сз232596 0.0 10172944
18:00+26юз123787 0.0 101734
21:00+21з114899 0.1 101711
19 мая, ср
ср1900:00+20ю225693 0.0 101733
03:00+18в346726 0.0 101864
06:00+20вюв46655 0.0 1019269
09:00+25юв44475 0.0 1018749
12:00+28юв56395 0.0 10181813
15:00+28юв56368 0.0 10172457
18:00+25юв484859 0.1 1016532
21:00+21ююв2767100 0.8 1017245